| time (UTC) | temp F | wind direction | speed knots | gust knots | rain 1hr in | rain 24hr in | rain mn in | humidity % | barometer mb |
| 20260505230038 | 77 | 5.2 | 12.2 | 0.00 | 0.00 | 0.00 | 26 | 1005.9 | |
| 20260505224532 | 77 | 7.8 | 14.8 | 0.00 | 0.00 | 0.00 | 26 | 1005.9 | |
| 20260505223028 | 78 | 5.2 | 15.6 | 0.00 | 0.00 | 0.00 | 26 | 1006.1 | |
| 20260505221522 | 77 | 4.3 | 15.6 | 0.00 | 0.00 | 0.00 | 27 | 1006.4 | |
| 20260505220024 | 77 | 5.2 | 13.0 | 0.00 | 0.00 | 0.00 | 26 | 1006.6 | |
| 20260505214521 | 77 | 8.7 | 14.8 | 0.00 | 0.00 | 0.00 | 26 | 1006.9 | |
| 20260505213025 | 77 | 3.5 | 14.8 | 0.00 | 0.00 | 0.00 | 27 | 1007.2 | |
| 20260505211521 | 76 | 6.1 | 13.0 | 0.00 | 0.00 | 0.00 | 28 | 1007.2 | |
| 20260505210018 | 75 | 2.6 | 6.1 | 0.00 | 0.00 | 0.00 | 30 | 1007.5 | |
| 20260505204518 | 75 | 3.5 | 7.8 | 0.00 | 0.00 | 0.00 | 29 | 1007.9 | |
| 20260505203027 | 76 | 2.6 | 7.8 | 0.00 | 0.00 | 0.00 | 28 | 1008.1 | |
| 20260505201517 | 76 | 2.6 | 4.3 | 0.00 | 0.00 | 0.00 | 28 | 1008.2 | |
| 20260505200014 | 77 | 0.9 | 3.5 | 0.00 | 0.00 | 0.00 | 29 | 1008.5 | |
| 20260505194513 | 76 | 1.7 | 6.1 | 0.00 | 0.00 | 0.00 | 28 | 1008.5 | |
| 20260505193053 | 76 | 1.7 | 4.3 | 0.00 | 0.00 | 0.00 | 28 | 1008.7 | |
| 20260505191603 | 76 | 1.7 | 7.0 | 0.00 | 0.00 | 0.00 | 29 | 1008.9 | |
| 20260505190104 | 75 | 3.5 | 8.7 | 0.00 | 0.00 | 0.00 | 28 | 1009.3 | |
| 20260505184603 | 75 | 0.9 | 4.3 | 0.00 | 0.00 | 0.00 | 28 | 1009.2 | |
| 20260505183110 | 75 | 0.0 | 2.6 | 0.00 | 0.00 | 0.00 | 30 | 1009.4 | |
| 20260505181544 | 73 | 0.9 | 3.5 | 0.00 | 0.00 | 0.00 | 31 | 1009.6 | |
| 20260505180045 | 69 | 0.9 | 4.3 | 0.00 | 0.00 | 0.00 | 33 | 1010.0 | |
| 20260505174540 | 71 | 2.6 | 6.1 | 0.00 | 0.00 | 0.00 | 33 | 1010.1 | |
| 20260505173047 | 71 | 0.0 | 5.2 | 0.00 | 0.00 | 0.00 | 32 | 1010.1 | |
| 20260505171544 | 70 | 0.0 | 4.3 | 0.00 | 0.00 | 0.00 | 33 | 1010.2 | |
| 20260505170037 | 70 | 0.9 | 4.3 | 0.00 | 0.00 | 0.00 | 33 | 1010.0 | |
| 20260505164533 | 69 | 0.0 | 4.3 | 0.00 | 0.00 | 0.00 | 36 | 1009.9 | |
| 20260505163032 | 68 | 0.9 | 3.5 | 0.00 | 0.00 | 0.00 | 36 | 1010.0 | |
| 20260505161532 | 66 | 0.9 | 4.3 | 0.00 | 0.00 | 0.00 | 38 | 1010.0 | |
| 20260505153028 | 63 | 1.7 | 6.1 | 0.00 | 0.00 | 0.00 | 45 | 1010.3 | |
| 20260505151533 | 63 | 2.6 | 7.0 | 0.00 | 0.00 | 0.00 | 46 | 1009.8 | |
| 20260505124601 | 65 | 4.3 | 9.6 | 0.00 | 0.00 | 0.00 | 34 | 1008.2 | |
| 20260505123042 | 65 | 3.5 | 10.4 | 0.00 | 0.00 | 0.00 | 34 | 1007.9 | |
| 20260505121541 | 65 | 3.5 | 9.6 | 0.00 | 0.00 | 0.00 | 34 | 1007.6 | |
| 20260505120100 | 65 | 1.7 | 7.8 | 0.00 | 0.00 | 0.00 | 35 | 1007.5 | |
| 20260505114538 | 65 | 2.6 | 7.8 | 0.00 | 0.00 | 0.00 | 35 | 1007.3 | |
| 20260505113043 | 65 | 2.6 | 7.0 | 0.00 | 0.00 | 0.00 | 35 | 1007.3 | |
| 20260505111538 | 66 | 2.6 | 8.7 | 0.00 | 0.00 | 0.00 | 36 | 1007.5 | |
| 20260505101532 | 67 | 4.3 | 9.6 | 0.00 | 0.00 | 0.00 | 34 | 1007.4 | |
| 20260505100031 | 66 | 4.3 | 11.3 | 0.00 | 0.00 | 0.00 | 34 | 1007.2 | |
| 20260505094526 | 66 | 2.6 | 8.7 | 0.00 | 0.00 | 0.00 | 33 | 1007.3 | |
| 20260505093025 | 65 | 3.5 | 9.6 | 0.00 | 0.00 | 0.00 | 33 | 1007.2 | |
| 20260505091527 | 65 | 2.6 | 8.7 | 0.00 | 0.00 | 0.00 | 33 | 1007.0 | |
| 20260505090036 | 65 | 3.5 | 9.6 | 0.00 | 0.00 | 0.00 | 33 | 1007.1 | |
| 20260505084519 | 64 | 3.5 | 9.6 | 0.00 | 0.00 | 0.00 | 33 | 1007.0 | |
| 20260505083015 | 65 | 3.5 | 10.4 | 0.00 | 0.00 | 0.00 | 32 | 1006.9 | |
| 20260505081514 | 65 | 4.3 | 8.7 | 0.00 | 0.00 | 0.00 | 31 | 1006.8 | |
| 20260505080009 | 65 | 3.5 | 7.0 | 0.00 | 0.00 | 0.00 | 31 | 1006.6 | |
| 20260505074508 | 65 | 3.5 | 9.6 | 0.00 | 0.00 | 0.00 | 32 | 1006.8 | |
| 20260505073004 | 66 | 3.5 | 8.7 | 0.00 | 0.00 | 0.00 | 31 | 1006.7 | |
| 20260505071500 | 67 | 3.5 | 10.4 | 0.00 | 0.00 | 0.00 | 29 | 1006.8 | |
| 20260505070101 | 67 | 4.3 | 8.7 | 0.00 | 0.00 | 0.00 | 29 | 1006.7 | |
| 20260505064555 | 68 | 5.2 | 9.6 | 0.00 | 0.00 | 0.00 | 28 | 1006.9 | |
| 20260505063048 | 69 | 3.5 | 8.7 | 0.00 | 0.00 | 0.00 | 26 | 1006.7 | |
| 20260505061552 | 69 | 4.3 | 7.8 | 0.00 | 0.00 | 0.00 | 26 | 1006.7 | |
| 20260505060042 | 70 | 4.3 | 8.7 | 0.00 | 0.00 | 0.00 | 25 | 1006.7 | |
| 20260505054600 | 70 | 5.2 | 9.6 | 0.00 | 0.00 | 0.00 | 25 | 1006.6 | |
| 20260505053052 | 71 | 4.3 | 11.3 | 0.00 | 0.00 | 0.00 | 24 | 1006.7 | |
| 20260505051540 | 71 | 3.5 | 9.6 | 0.00 | 0.00 | 0.00 | 24 | 1006.8 | |
| 20260505041538 | 69 | 4.3 | 7.8 | 0.00 | 0.00 | 0.00 | 25 | 1006.9 | |
| 20260505040038 | 69 | 2.6 | 6.1 | 0.00 | 0.00 | 0.00 | 25 | 1007.0 | |
| 20260505034538 | 70 | 2.6 | 6.1 | 0.00 | 0.00 | 0.00 | 25 | 1006.9 | |
| 20260505033037 | 71 | 2.6 | 7.8 | 0.00 | 0.00 | 0.00 | 23 | 1006.9 | |
| 20260505031546 | 72 | 3.5 | 7.8 | 0.00 | 0.00 | 0.00 | 22 | 1006.7 | |
| 20260505030036 | 73 | 4.3 | 9.6 | 0.00 | 0.00 | 0.00 | 22 | 1006.6 | |
| 20260505024540 | 73 | 5.2 | 9.6 | 0.00 | 0.00 | 0.00 | 21 | 1006.5 | |
| 20260505023030 | 73 | 4.3 | 9.6 | 0.00 | 0.00 | 0.00 | 21 | 1006.4 | |
| 20260505021529 | 73 | 3.5 | 8.7 | 0.00 | 0.00 | 0.00 | 22 | 1006.3 | |
| 20260505020032 | 74 | 3.5 | 7.8 | 0.00 | 0.00 | 0.00 | 21 | 1006.1 | |
| 20260505014534 | 74 | 3.5 | 7.8 | 0.00 | 0.00 | 0.00 | 22 | 1005.9 | |
| 20260505013026 | 75 | 4.3 | 12.2 | 0.00 | 0.00 | 0.00 | 22 | 1006.0 | |
| 20260505011532 | 76 | 4.3 | 10.4 | 0.00 | 0.00 | 0.00 | 21 | 1006.1 | |
| 20260505010026 | 76 | 3.5 | 9.6 | 0.00 | 0.00 | 0.00 | 21 | 1006.0 | |
| 20260505004541 | 77 | 3.5 | 8.7 | 0.00 | 0.00 | 0.00 | 20 | 1006.1 | |
| 20260505003022 | 78 | 4.3 | 12.2 | 0.00 | 0.00 | 0.00 | 20 | 1006.2 | |
| 20260505001520 | 78 | 6.1 | 12.2 | 0.00 | 0.00 | 0.00 | 19 | 1006.6 | |
| 20260505000034 | 79 | 6.1 | 16.5 | 0.00 | 0.00 | 0.00 | 19 | 1006.6 | |
| 20260504234518 | 79 | 7.8 | 14.8 | 0.00 | 0.00 | 0.00 | 18 | 1006.8 | |
| 20260504233017 | 79 | 7.0 | 13.9 | 0.00 | 0.00 | 0.00 | 18 | 1006.7 | |
| 20260504231517 | 79 | 6.1 | 13.0 | 0.00 | 0.00 | 0.00 | 18 | 1006.8 |